COSMOS 2278

Last updated on Mon Sep 21 2026 00:02:08 GMT+0000 (Coordinated Universal Time)

1 23087U 94023A 26262.87374280 .00000252 00000+0 15632-3 0 9993 2 23087 71.0528 128.8180 0006772 91.5583 268.6315 14.14409878672266
UTC large
Height (km)
Speed (km/s)
/
Latitude / Longitude
Inclination (degrees)
Orbital Period (minutes)
Azimuth
Elevation
Range (km)
Doppler Factor

Next 0 passes for location: London (51.5072 / 0.1276)

No passes found over London.
COSMOS 2278